[[{"header":{"parameterUnit":"m.s-1","parameterCategory":1,"la1":30.2991,"la2":30.254,"lo1":-89.0895,"lo2":-89.0444,"dy":0.0017,"dx":0.0017,"nx":28,"ny":28,"refTime":"2023-08-17T03:00:00:Z","depth":0,"parameterNumber":2,"parameterNumberName":"U-component_of_WINDS"},"data":[0,0,0,0,0,0,0,0,0,0,0,0,0,0,0,0,0,0,0,0,0,0,0,0,0,0,0,0,0,0,0,0,0,0,0,0,0,0,0,0,0,0,0,0,0,0,0,0,0,0,0,0,0,0,0,0,0,0,1.1387,1.1388,0,1.1496,1.1497,1.1499,1.1536,1.1535,1.1535,1.1535,1.1645,1.1648,1.1652,0,0,0,0,0,0,0,0,0,0,0,0,0,1.1206,1.121,1.1387,1.1388,1.1389,1.1496,1.1497,1.1499,1.1536,1.1535,1.1535,1.1534,1.1644,1.1648,1.1652,0,0,0,0,0,0,0,0,0,0,0,0,0,1.1297,1.1211,1.1386,1.1421,1.1425,1.1496,1.1497,1.1499,1.1536,1.1535,1.1535,1.1534,1.1643,1.1647,1.1652,1.1696,0,0,1.1668,1.167,0,0,0,0,0,0,0,0,1.1292,1.1304,1.1414,1.1418,1.1423,1.1502,1.1474,1.1565,1.1536,1.1494,1.1535,1.1534,1.1598,1.1606,1.1628,1.1701,1.1706,1.1668,1.1671,1.1673,1.1675,0,0,0,0,0,0,0,1.1286,1.1299,1.143,1.1416,1.1421,1.143,1.1442,1.1492,1.1548,1.1497,1.15,1.1513,1.16,1.1623,1.1631,1.1708,1.1668,1.1672,1.1676,1.1677,1.182,1.1821,0,0,0,0,0,0,1.1274,1.1294,1.1426,1.1433,1.1355,1.1433,1.1447,1.1477,1.1548,1.1558,1.1513,1.1514,1.1615,1.1625,1.1635,1.169,1.1673,1.1678,1.1681,1.182,1.1821,1.1822,0,0,0,0,0,0,1.127,1.1285,1.1422,1.1364,1.1382,1.1437,1.1471,1.148,1.1503,1.156,1.157,1.1527,1.1615,1.1628,1.1681,1.1694,1.168,1.1685,1.1819,1.182,1.1821,1.1801,0,0,0,0,0,0,1.1265,1.1284,1.1302,1.1364,1.1385,1.1466,1.1472,1.1482,1.1512,1.1514,1.1575,1.1585,1.1615,1.1673,1.1685,1.1701,1.1689,1.1818,1.1819,1.1821,1.18,1.1801,1.1802,0,0,0,0,0,1.1258,1.1292,1.1303,1.1318,1.1409,1.1467,1.1479,1.1514,1.1513,1.1531,1.1567,1.1583,1.1691,1.1678,1.1692,1.171,1.1817,1.1819,1.1821,1.18,1.1801,1.1802,0,0,0,0,0,0,1.1229,1.1301,1.1313,1.1369,1.1412,1.1473,1.1497,1.1514,1.1558,1.1558,1.1599,1.1613,1.1662,1.1691,1.1675,1.1755,1.1755,1.1759,1.1734,1.1735,1.1736,1.1728,1.1693,0,0,0,0,0,1.1229,1.1271,1.1331,1.1374,1.1395,1.1442,1.1469,1.1492,1.1538,1.1556,1.1596,1.1639,1.1683,1.1711,1.1754,1.1805,1.1818,1.1824,1.1824,1.1824,1.1828,1.1855,1.1858,1.1827,1.1827,1.1827,0,0,1.123,1.1274,1.1298,1.1369,1.1405,1.1446,1.1457,1.1501,1.1531,1.1563,1.1614,1.1645,1.1696,1.1747,1.1772,1.1773,1.1839,1.1827,1.1826,1.183,1.1857,1.186,1.1863,1.1829,1.1828,1.1828,0,0,1.1251,1.129,1.1329,1.1365,1.1419,1.145,1.1459,1.1518,1.154,1.1593,1.1616,1.1653,1.1728,1.1762,1.179,1.1823,1.1839,1.1836,1.1839,1.1865,1.1867,1.187,1.188,1.1884,1.1839,1.1839,1.1839,0,1.1245,1.1309,1.1347,1.1389,1.1419,1.1449,1.1488,1.1521,1.1586,1.1605,1.1606,1.1699,1.1736,1.1795,1.1802,1.1824,1.1835,1.1829,1.1864,1.1867,1.187,1.188,1.1884,1.1838,1.1838,1.1839,1.1839,0,1.1298,1.1342,1.1367,1.1429,1.1462,1.1502,1.1545,1.1573,1.1593,1.1624,1.1676,1.172,1.1773,1.1788,1.1809,1.185,1.1849,1.1856,1.1857,1.1871,1.1882,1.1886,1.1837,1.1838,1.1838,1.1838,0,0,1.1305,1.1387,1.1395,1.1424,1.1485,1.1519,1.156,1.1611,1.1634,1.1678,1.1712,1.1774,1.1781,1.1812,1.1836,1.1859,1.1881,1.1864,1.1866,1.1865,1.1927,1.1921,1.1925,1.1892,1.1892,1.1893,1.1923,0,1.1334,1.141,1.1444,1.1503,1.1543,1.1572,1.1607,1.1648,1.1677,1.1714,1.1747,1.1789,1.1796,1.1814,1.1838,1.1873,1.1894,1.1871,1.1923,1.1924,1.1909,1.1931,1.1925,1.195,1.1927,1.1928,1.1928,0,1.1378,1.1422,1.1485,1.1541,1.1559,1.159,1.1639,1.1675,1.1721,1.1741,1.1775,1.1798,1.184,1.1838,1.1896,1.188,1.1903,1.1923,1.1925,1.1931,1.1927,1.1936,1.1959,1.1963,1.1936,1.1935,1.1935,0,1.1375,1.145,1.1498,1.1521,1.1587,1.1608,1.1637,1.1682,1.171,1.1753,1.1771,1.1818,1.1843,1.1878,1.1913,1.1908,1.1967,1.1968,1.1984,1.1983,1.1995,1.1993,1.2021,1.201,1.201,1.201,1.201,0,1.1404,1.1441,1.1497,1.1526,1.1568,1.1607,1.1647,1.1677,1.1718,1.1752,1.1779,1.1811,1.1855,1.1891,1.1918,1.1962,1.1973,1.1989,1.1996,1.1987,1.1984,1.2002,1.2001,1.2011,1.2011,1.2011,1.2011,0,1.1408,1.1447,1.15,1.1559,1.1574,1.1602,1.1651,1.168,1.171,1.1753,1.1765,1.1813,1.1857,1.1895,1.1953,1.1971,1.2016,1.2024,1.2001,1.2004,1.2017,1.2015,1.2057,1.2064,1.2048,1.2049,1.2049,0,1.1423,1.1453,1.1514,1.1539,1.1567,1.1608,1.1636,1.1675,1.1703,1.1757,1.1779,1.1825,1.1865,1.1934,1.1973,1.2017,1.2026,1.2038,1.2033,1.2022,1.2026,1.2023,1.2026,1.2038,1.2038,1.2038,1.2038,0,1.1446,1.1463,1.1504,1.1552,1.1585,1.1624,1.1664,1.1683,1.1728,1.1759,1.1805,1.1835,1.1894,1.194,1.1988,1.2016,1.2034,1.2039,1.2045,1.2035,1.202,1.2027,1.2,1.2038,1.2038,1.2038,1.2038,1.2038,1.1455,1.1482,1.1529,1.1574,1.1607,1.1643,1.1673,1.1706,1.1746,1.1797,1.1817,1.1864,1.1908,1.1975,1.2003,1.2039,1.2042,1.205,1.2052,1.2054,1.2052,1.2014,1.2048,1.2048,1.2048,1.2048,1.2048,0,1.1478,1.151,1.155,1.1605,1.1639,1.1654,1.1698,1.1725,1.1766,1.1806,1.1844,1.1896,1.1939,1.1981,1.2027,1.2048,1.2057,1.2058,1.2057,1.2063,1.2047,1.2037,1.205,1.205,1.205,1.205,1.205,1.205,1.1494,1.154,1.1563,1.1626,1.1657,1.1703,1.1727,1.176,1.1792,1.1849,1.1885,1.1913,1.1953,1.2001,1.2042,1.2053,1.2068,1.2067,1.208,1.2065,1.2064,1.2063,1.2054,1.207,1.207,1.2092,1.2093,1.2093]},{"header":{"parameterUnit":"m.s-1","parameterCategory":1,"la1":30.2991,"la2":30.254,"lo1":-89.0895,"lo2":-89.0444,"dy":0.0017,"dx":0.0017,"nx":28,"ny":28,"refTime":"2023-08-17T03:00:00:Z","depth":0,"parameterNumber":3,"parameterNumberName":"V-component_of_WINDS"},"data":[0,0,0,0,0,0,0,0,0,0,0,0,0,0,0,0,0,0,0,0,0,0,0,0,0,0,0,0,0,0,0,0,0,0,0,0,0,0,0,0,0,0,0,0,0,0,0,0,0,0,0,0,0,0,0,0,0,0,6.0699,6.0699,0,6.065,6.0649,6.0649,6.054,6.0538,6.0536,6.0534,6.0486,6.0487,6.0487,0,0,0,0,0,0,0,0,0,0,0,0,0,6.0704,6.0705,6.07,6.0699,6.0698,6.065,6.0649,6.0648,6.0541,6.0538,6.0535,6.0533,6.0486,6.0486,6.0487,0,0,0,0,0,0,0,0,0,0,0,0,0,6.0683,6.0705,6.07,6.0639,6.0633,6.065,6.0649,6.0648,6.0541,6.0538,6.0535,6.0532,6.0485,6.0486,6.0488,6.0561,0,0,6.0491,6.0492,0,0,0,0,0,0,0,0,6.0685,6.0683,6.0648,6.0643,6.0636,6.0598,6.0633,6.0619,6.0542,6.0576,6.0534,6.053,6.0526,6.0524,6.0522,6.0559,6.0556,6.0491,6.0492,6.0492,6.0493,0,0,0,0,0,0,0,6.0686,6.0685,6.068,6.0648,6.0641,6.0615,6.0608,6.063,6.057,6.0573,6.0565,6.056,6.0522,6.0521,6.052,6.0556,6.0491,6.0492,6.0493,6.0493,6.065,6.0653,0,0,0,0,0,0,6.0696,6.0687,6.0681,6.0678,6.0653,6.0617,6.061,6.0614,6.057,6.056,6.0563,6.0556,6.052,6.0518,6.0518,6.0599,6.0492,6.0493,6.0494,6.0646,6.0651,6.0654,0,0,0,0,0,0,6.0697,6.0697,6.0683,6.068,6.0677,6.0621,6.0626,6.0614,6.0613,6.0562,6.0552,6.0573,6.0518,6.0516,6.055,6.0596,6.0494,6.0495,6.0642,6.0648,6.0652,6.0765,0,0,0,0,0,0,6.0697,6.0697,6.0724,6.0682,6.0677,6.0717,6.0629,6.0616,6.0615,6.0604,6.0568,6.0559,6.0515,6.0549,6.0552,6.0596,6.0496,6.0638,6.0645,6.0651,6.0757,6.0773,6.0787,0,0,0,0,0,6.0698,6.0758,6.0726,6.0726,6.0709,6.072,6.0717,6.0664,6.0619,6.0645,6.0613,6.056,6.0591,6.0554,6.0555,6.0601,6.0635,6.0643,6.065,6.075,6.077,6.0787,0,0,0,0,0,0,6.0808,6.0752,6.0715,6.0764,6.0747,6.0701,6.0733,6.0687,6.0684,6.0674,6.061,6.0602,6.0646,6.0627,6.0586,6.0669,6.0605,6.0613,6.068,6.0698,6.0713,6.0716,6.0497,0,0,0,0,0,6.0838,6.0851,6.0801,6.0849,6.0842,6.079,6.0792,6.0753,6.0733,6.0726,6.0696,6.068,6.0686,6.0691,6.0694,6.0754,6.0744,6.0786,6.0801,6.0814,6.0822,6.0851,6.0869,6.068,6.068,6.068,0,0,6.0901,6.0871,6.0883,6.087,6.0853,6.0867,6.0784,6.0804,6.0814,6.0729,6.0759,6.0737,6.0715,6.0763,6.0782,6.0748,6.0872,6.0824,6.0835,6.0835,6.0861,6.0879,6.0895,6.0685,6.0684,6.0683,0,0,6.1021,6.1,6.1037,6.1021,6.0996,6.096,6.097,6.0931,6.0912,6.0942,6.0878,6.089,6.0902,6.0889,6.0883,6.1,6.0951,6.1003,6.1082,6.1112,6.1126,6.1139,6.118,6.1195,6.1011,6.1011,6.1011,0,6.1101,6.112,6.1062,6.1085,6.1081,6.1005,6.1042,6.103,6.1007,6.1007,6.0969,6.0982,6.0962,6.1005,6.1033,6.1032,6.104,6.1006,6.1129,6.1141,6.1152,6.119,6.1206,6.1018,6.1017,6.1016,6.1016,0,6.122,6.1234,6.1268,6.1246,6.1246,6.1277,6.1224,6.1232,6.1193,6.1162,6.1193,6.1166,6.1162,6.1169,6.1132,6.1207,6.1187,6.114,6.1074,6.1178,6.1212,6.1226,6.1027,6.1024,6.1022,6.1021,0,0,6.1407,6.1354,6.1367,6.1356,6.1323,6.1333,6.136,6.1355,6.1362,6.135,6.1371,6.1383,6.1339,6.1334,6.1295,6.1321,6.1413,6.1271,6.1269,6.1297,6.1494,6.1528,6.1545,6.1382,6.1384,6.1386,6.1495,0,6.1519,6.1561,6.151,6.1563,6.1575,6.1503,6.1527,6.151,6.1482,6.1489,6.1458,6.1467,6.141,6.1406,6.1429,6.1397,6.1452,6.1389,6.14,6.1401,6.1406,6.1563,6.1599,6.1703,6.1508,6.151,6.1512,0,6.1654,6.1647,6.1701,6.1664,6.1667,6.1689,6.168,6.1688,6.1667,6.1645,6.1639,6.1591,6.1616,6.1553,6.1586,6.1544,6.1546,6.1532,6.1535,6.1532,6.1462,6.1564,6.1735,6.175,6.1533,6.1531,6.153,0,6.1784,6.1788,6.182,6.1813,6.1771,6.1788,6.1772,6.1747,6.1748,6.1741,6.174,6.1737,6.1735,6.1733,6.1687,6.1645,6.1726,6.1658,6.1708,6.1709,6.1726,6.1726,6.1899,6.1731,6.173,6.173,6.173,0,6.1912,6.1948,6.1877,6.1898,6.1936,6.1878,6.1917,6.1894,6.1873,6.1887,6.1826,6.1841,6.1779,6.1788,6.1752,6.1785,6.1785,6.1767,6.1757,6.1772,6.1774,6.1771,6.1762,6.1734,6.1733,6.1733,6.1732,0,6.2063,6.2017,6.2048,6.2005,6.1995,6.2025,6.1989,6.2006,6.1975,6.1994,6.1996,6.1946,6.1954,6.1907,6.1906,6.1882,6.1932,6.191,6.1938,6.1931,6.1982,6.1978,6.2159,6.2179,6.2,6.2001,6.2003,0,6.2147,6.2172,6.2133,6.2138,6.2124,6.2133,6.2132,6.2077,6.2079,6.2058,6.2078,6.208,6.2078,6.2093,6.2058,6.2057,6.2034,6.2097,6.2033,6.2047,6.2033,6.2032,6.2033,6.211,6.2112,6.2114,6.2116,0,6.2301,6.2277,6.2278,6.2272,6.2274,6.2266,6.2255,6.2263,6.2203,6.2209,6.2215,6.2214,6.2212,6.2215,6.2207,6.2191,6.2144,6.2136,6.2147,6.2162,6.2177,6.2168,6.1973,6.2132,6.213,6.2129,6.2128,6.2128,6.242,6.2439,6.2414,6.2417,6.2403,6.2394,6.2408,6.2378,6.2382,6.2375,6.2343,6.2355,6.2334,6.2318,6.2306,6.2316,6.2285,6.2302,6.2305,6.231,6.2319,6.2177,6.2314,6.2314,6.2313,6.2313,6.2312,0,6.257,6.255,6.2554,6.254,6.2543,6.2498,6.2483,6.2489,6.25,6.2484,6.2483,6.2491,6.2493,6.2458,6.2457,6.2471,6.2449,6.2472,6.2469,6.2466,6.2347,6.2336,6.2489,6.2489,6.2489,6.2489,6.2489,6.2489,6.2648,6.2677,6.2651,6.2673,6.2653,6.2664,6.2659,6.2651,6.2638,6.2648,6.265,6.2627,6.2603,6.2599,6.26,6.2589,6.2591,6.2621,6.2604,6.2492,6.2475,6.2458,6.2448,6.2622,6.2623,6.2722,6.2723,6.2724]}]]